Regional Weather Roundup
Issued by NWS

Home | Current Version | Previous Version | Graphics & Text | Print | Product List | Glossary On
Versions: 1 2 3 4 5 6 7 8 9 10 11 12 13 14 15 16 17 18 19 20 21 22 23 24 25 26 27 28 29 30 31 32 33 34 35 36 37 38 39 40 41 42 43 44 45 46 47 48 49 50
000
ASUS43 KTOP 221408
RWRKS

WEATHER ROUNDUP FOR KANSAS
NATIONAL WEATHER SERVICE GOODLAND KS
900 AM CDT TUE JUL 22 2014

NOTE:  "FAIR" INDICATES FEW OR NO CLOUDS BELOW 12,000 FEET WITH NO
SIGNIFICANT WEATHER AND/OR OBSTRUCTIONS TO VISIBILITY.

KSZ001>006-013>018-027>032-041>047-221500-
NORTHWEST KANSAS

CITY           SKY/WX    TMP DP  RH WIND       PRES   REMARKS
GOODLAND       SUNNY     78  59  51 E7        30.15F
HAYS           SUNNY     77  63  61 S3        30.11R
HILL CITY      SUNNY     75  64  68 CALM      30.11R
RUSSELL        SUNNY     79  69  71 S5        30.08S
$$

KSZ061>065-074>080-084>089-221500-
SOUTHWEST KANSAS

CITY           SKY/WX    TMP DP  RH WIND       PRES   REMARKS
DODGE CITY     MOSUNNY   78  67  68 SW7       30.12S
ELKHART          N/A     75  64  68 SW6         N/A
GARDEN CITY    MOSUNNY   76  66  71 S8        30.13R
GREAT BEND     SUNNY     81  68  65 SW7       30.08S
LIBERAL        PTSUNNY   75  66  73 SE7       30.16R
PRATT          SUNNY     81  68  65 S8        30.11S
$$

KSZ066>073-081>083-090>101-221500-
SOUTHEAST KANSAS

CITY           SKY/WX    TMP DP  RH WIND       PRES   REMARKS
CHANUTE        SUNNY     79  72  79 S14       30.09S
COFFEYVILLE    MOSUNNY   79  73  82 S9        30.09S
HUTCHINSON     SUNNY     82  71  69 S7        30.08R
MEDICINE LODGE   N/A     80  72  76 S6        30.08S
NEWTON         SUNNY     81  70  69 SW12      30.11S
PARSONS        SUNNY     79  72  79 S9        30.10S
WICHITA INTL   MOSUNNY   81  74  79 SW10      30.08R
WICHITA JABRA  SUNNY     80  73  79 SW9       30.08R
WICHITA MCCONL SUNNY     80  78  96 S10       30.09R
WINFIELD       SUNNY     80  75  84 S9        30.10S
$$

KSZ007>012-019>026-033>040-048>060-102>105-221500-
NORTHEAST KANSAS

CITY           SKY/WX    TMP DP  RH WIND       PRES   REMARKS
CONCORDIA      PTSUNNY   81  70  69 W10       30.06R
EMPORIA        SUNNY     81  75  82 S9        30.06R
LAWRENCE       SUNNY     81  75  82 SW7G17    30.03R HAZE
MANHATTAN      SUNNY     83  73  72 SW12      30.03R
MARYSVILLE     MOSUNNY   81  73  78 W7        30.03R
OLATHE IND     SUNNY     81  74  79 SW16      30.05S
OLATHE EXE     SUNNY     77  73  87 SW12      30.04S
SALINA         MOSUNNY   83  71  67 SW10      30.05R
TOPEKA BILLARD MOSUNNY   82  76  81 SW10      30.02S
TOPEKA FORBES  SUNNY     82  75  79 S13       30.03S
$$


USA.gov is the U.S. government's official web portal to all federal, state and local government web resources and services.